Hourly Data Report for September 26, 2016

SHEARWATER RCS
NOVA SCOTIA

44°37'47.000" N
63°30'48.000" W
24.00 m
8205092
71264
AAW

Download Data

Hourly Data (September 2016)
Hourly Data Report for September 26, 2016
TIME Temp Definition
°C
Dew Point Definition
°C
Rel Hum Definition
%
Wind Dir Definition
10's deg

Wind Spd Definition
km/h
Visibility Definition
km
Stn Press Definition
kPa
Hmdx Definition


Wind Chill Definition


Weather Definition


00:00 7.4 4.6 82 31 10   101.12     LegendNANA
01:00 7.0 4.1 82 31 8   101.12     LegendNANA
02:00 6.7 4.1 83 30 7   101.13     LegendNANA
03:00 7.3 4.5 82 31 15   101.13     LegendNANA
04:00 6.8 4.2 84 32 13   101.17     LegendNANA
05:00 6.7 4.4 85 32 11   101.20     LegendNANA
06:00 6.7 4.4 85 32 13   101.25     LegendNANA
07:00 7.3 4.7 84 31 13   101.33     LegendNANA
08:00 9.3 5.4 77 31 15   101.37     LegendNANA
09:00 10.9 4.7 66 32 21   101.40     LegendNANA
10:00 11.8 4.0 59 33 26   101.38     LegendNANA
11:00 13.3 4.0 53 33 18   101.41     LegendNANA
12:00 13.3 3.1 50 33 21   101.40     LegendNANA
13:00 14.6 2.8 45 32 17   101.39     LegendNANA
14:00 13.9 2.1 45 31 19   101.36     LegendNANA
15:00 14.6 3.0 46 31 18   101.30     LegendNANA
16:00 14.2 2.5 45 29 16   101.29     LegendNANA
17:00 14.1 2.0 44 29 12   101.33     LegendNANA
18:00 12.8 3.1 52 28 8   101.35     LegendNANA
19:00 11.8 4.6 61 26 6   101.40     LegendNANA
20:00 10.7 4.4 65 28 5   101.44     LegendNANA
21:00 10.2 4.6 68 31 4   101.38     LegendNANA
22:00 10.6 4.6 67 28 8   101.38     LegendNANA
23:00 10.0 4.7 69 25 9   101.34     LegendNANA

Notes on Data Quality.

Legend

  • E = Estimated
  • M = Missing
  • NA = Not Available*
  • [empty] = Indicates an unobserved value
Date modified: